[[{"header":{"parameterUnit":"m.s-1","parameterCategory":1,"la1":30.2991,"la2":30.254,"lo1":-89.0895,"lo2":-89.0444,"dy":0.0017,"dx":0.0017,"nx":28,"ny":28,"refTime":"2023-09-30T09:00:00:Z","depth":0,"parameterNumber":2,"parameterNumberName":"U-component_of_WINDS"},"data":[0,0,0,0,0,0,0,0,0,0,0,0,0,0,0,0,0,0,0,0,0,0,0,0,0,0,0,0,0,0,0,0,0,0,0,0,0,0,0,0,0,0,0,0,0,0,0,0,0,0,0,0,0,0,0,0,0,0,-2.5974,-2.5974,0,-2.5984,-2.5984,-2.5985,-2.5882,-2.588,-2.5877,-2.5874,-2.5884,-2.5887,-2.589,0,0,0,0,0,0,0,0,0,0,0,0,0,-2.5866,-2.5869,-2.5974,-2.5975,-2.5975,-2.5984,-2.5984,-2.5985,-2.5883,-2.5879,-2.5876,-2.5873,-2.5883,-2.5886,-2.589,0,0,0,0,0,0,0,0,0,0,0,0,0,-2.5899,-2.587,-2.5974,-2.5925,-2.5921,-2.5984,-2.5984,-2.5985,-2.5884,-2.5879,-2.5875,-2.5871,-2.5882,-2.5886,-2.589,-2.6001,0,0,-2.5903,-2.5905,0,0,0,0,0,0,0,0,-2.5897,-2.5903,-2.5932,-2.5929,-2.5924,-2.5928,-2.595,-2.599,-2.5885,-2.5898,-2.5874,-2.5869,-2.5902,-2.5904,-2.5915,-2.6002,-2.6002,-2.5904,-2.5906,-2.5908,-2.591,0,0,0,0,0,0,0,-2.5895,-2.5902,-2.5978,-2.5933,-2.5928,-2.5902,-2.5902,-2.5957,-2.5923,-2.5896,-2.5889,-2.5891,-2.5899,-2.5912,-2.5915,-2.6002,-2.5904,-2.5908,-2.591,-2.5912,-2.618,-2.6184,0,0,0,0,0,0,-2.5899,-2.59,-2.5978,-2.5978,-2.59,-2.5908,-2.5907,-2.5931,-2.5922,-2.5917,-2.5895,-2.5887,-2.5906,-2.591,-2.5915,-2.6044,-2.5908,-2.5912,-2.5915,-2.6175,-2.6181,-2.6186,0,0,0,0,0,0,-2.5897,-2.5907,-2.5977,-2.5938,-2.5944,-2.5914,-2.5941,-2.5933,-2.5946,-2.5922,-2.5915,-2.5914,-2.5903,-2.5909,-2.5981,-2.6043,-2.5914,-2.5918,-2.617,-2.6177,-2.6183,-2.6304,0,0,0,0,0,0,-2.5895,-2.5907,-2.5949,-2.5939,-2.5947,-2.6044,-2.5945,-2.5936,-2.5954,-2.5943,-2.5938,-2.5933,-2.59,-2.5975,-2.5985,-2.6047,-2.5922,-2.6164,-2.6173,-2.6181,-2.6294,-2.6314,-2.6331,0,0,0,0,0,-2.5891,-2.5983,-2.5952,-2.5962,-2.5999,-2.6048,-2.6052,-2.6012,-2.5959,-2.6001,-2.5985,-2.5933,-2.6035,-2.5983,-2.5993,-2.6058,-2.616,-2.6171,-2.6181,-2.6286,-2.631,-2.633,0,0,0,0,0,0,-2.6001,-2.5981,-2.5946,-2.6037,-2.6045,-2.603,-2.6082,-2.6039,-2.6062,-2.6051,-2.6001,-2.6,-2.6081,-2.6076,-2.6019,-2.6164,-2.6088,-2.6101,-2.6164,-2.6187,-2.6205,-2.6205,-2.5925,0,0,0,0,0,-2.6036,-2.6077,-2.6057,-2.6139,-2.6145,-2.6113,-2.6133,-2.6101,-2.6107,-2.611,-2.6099,-2.6107,-2.614,-2.6163,-2.6193,-2.6293,-2.629,-2.6342,-2.6361,-2.6376,-2.6387,-2.644,-2.6463,-2.6219,-2.6219,-2.6219,0,0,-2.6108,-2.6102,-2.6131,-2.6161,-2.6163,-2.6207,-2.6116,-2.6166,-2.6198,-2.6117,-2.6184,-2.6177,-2.6182,-2.6269,-2.6306,-2.6267,-2.6454,-2.6389,-2.6401,-2.6404,-2.6453,-2.6476,-2.6496,-2.6226,-2.6225,-2.6224,0,0,-2.6262,-2.6262,-2.633,-2.6334,-2.6339,-2.6317,-2.6334,-2.6325,-2.6318,-2.6384,-2.6325,-2.6361,-2.642,-2.6426,-2.6437,-2.6593,-2.6546,-2.6604,-2.67,-2.6752,-2.6771,-2.6787,-2.6843,-2.6864,-2.6616,-2.6616,-2.6616,0,-2.6351,-2.6415,-2.6371,-2.6425,-2.6439,-2.6368,-2.6437,-2.6443,-2.6457,-2.6469,-2.6425,-2.6497,-2.6496,-2.6583,-2.6621,-2.6632,-2.6649,-2.6604,-2.6772,-2.6788,-2.6803,-2.6855,-2.6877,-2.6623,-2.6622,-2.6621,-2.6621,0,-2.6524,-2.6569,-2.6624,-2.6639,-2.666,-2.6721,-2.6686,-2.6713,-2.668,-2.6663,-2.6731,-2.6727,-2.6754,-2.6772,-2.6741,-2.6855,-2.6831,-2.678,-2.6702,-2.6834,-2.6882,-2.6902,-2.6633,-2.6631,-2.6628,-2.6627,0,0,-2.6747,-2.6738,-2.6759,-2.6765,-2.6764,-2.6798,-2.6856,-2.6883,-2.6906,-2.6918,-2.6965,-2.7017,-2.697,-2.6982,-2.6951,-2.6996,-2.712,-2.694,-2.6939,-2.6974,-2.7246,-2.7284,-2.7308,-2.7089,-2.7092,-2.7095,-2.7245,0,-2.6897,-2.6996,-2.6958,-2.7059,-2.71,-2.7033,-2.7083,-2.7089,-2.7074,-2.7106,-2.709,-2.7127,-2.7063,-2.707,-2.7112,-2.7096,-2.7174,-2.7085,-2.7132,-2.7134,-2.7133,-2.7333,-2.7373,-2.7515,-2.7264,-2.7267,-2.7269,0,-2.7085,-2.7105,-2.7211,-2.7203,-2.7219,-2.7265,-2.7286,-2.7318,-2.7322,-2.7309,-2.7323,-2.7281,-2.7337,-2.7259,-2.7336,-2.7276,-2.7293,-2.7288,-2.7293,-2.7296,-2.721,-2.7342,-2.7559,-2.7581,-2.7299,-2.7296,-2.7294,0,-2.7238,-2.7291,-2.7361,-2.7368,-2.7361,-2.7395,-2.7394,-2.7394,-2.7412,-2.7431,-2.7442,-2.7467,-2.7481,-2.7501,-2.7467,-2.7414,-2.7549,-2.7468,-2.7539,-2.754,-2.757,-2.7569,-2.7794,-2.7581,-2.7581,-2.758,-2.758,0,-2.7409,-2.7477,-2.7429,-2.7472,-2.7546,-2.7501,-2.7575,-2.7566,-2.7567,-2.7607,-2.755,-2.7589,-2.7541,-2.7576,-2.7549,-2.7617,-2.7623,-2.7614,-2.7606,-2.7619,-2.762,-2.7629,-2.7619,-2.7586,-2.7585,-2.7584,-2.7583,0,-2.7592,-2.7563,-2.7635,-2.7622,-2.7621,-2.7675,-2.7664,-2.7703,-2.7685,-2.7736,-2.7746,-2.7717,-2.7754,-2.7722,-2.7758,-2.774,-2.783,-2.7808,-2.7829,-2.7822,-2.7895,-2.7889,-2.8134,-2.8164,-2.7932,-2.7934,-2.7936,0,-2.7704,-2.7754,-2.7747,-2.7769,-2.7771,-2.7809,-2.7827,-2.7785,-2.7807,-2.7816,-2.7854,-2.7887,-2.791,-2.7973,-2.7955,-2.7982,-2.7961,-2.8045,-2.7964,-2.7976,-2.7962,-2.796,-2.7964,-2.8061,-2.8064,-2.8066,-2.8068,0,-2.7904,-2.7888,-2.7916,-2.7941,-2.7965,-2.7982,-2.7994,-2.8016,-2.7973,-2.8,-2.8037,-2.8056,-2.8093,-2.8126,-2.8147,-2.8145,-2.81,-2.8094,-2.8111,-2.8125,-2.8135,-2.8131,-2.7873,-2.8088,-2.8086,-2.8085,-2.8084,-2.8083,-2.8055,-2.8096,-2.8098,-2.8132,-2.8137,-2.815,-2.8186,-2.8172,-2.8202,-2.8229,-2.8202,-2.8248,-2.8251,-2.8275,-2.8278,-2.8313,-2.8278,-2.8304,-2.831,-2.8317,-2.8328,-2.813,-2.8317,-2.8316,-2.8316,-2.8315,-2.8315,0,-2.8253,-2.825,-2.8282,-2.8301,-2.8328,-2.8283,-2.8295,-2.832,-2.8361,-2.8367,-2.8392,-2.8435,-2.8467,-2.8451,-2.8479,-2.851,-2.849,-2.8519,-2.8516,-2.8516,-2.8358,-2.834,-2.8534,-2.8534,-2.8534,-2.8534,-2.8534,-2.8534,-2.8359,-2.8427,-2.841,-2.8479,-2.8476,-2.852,-2.8531,-2.8542,-2.8547,-2.8598,-2.8624,-2.8614,-2.8612,-2.8638,-2.8666,-2.866,-2.8673,-2.8709,-2.8697,-2.8549,-2.8527,-2.8507,-2.849,-2.8713,-2.8713,-2.8852,-2.8854,-2.8855]},{"header":{"parameterUnit":"m.s-1","parameterCategory":1,"la1":30.2991,"la2":30.254,"lo1":-89.0895,"lo2":-89.0444,"dy":0.0017,"dx":0.0017,"nx":28,"ny":28,"refTime":"2023-09-30T09:00:00:Z","depth":0,"parameterNumber":3,"parameterNumberName":"V-component_of_WINDS"},"data":[0,0,0,0,0,0,0,0,0,0,0,0,0,0,0,0,0,0,0,0,0,0,0,0,0,0,0,0,0,0,0,0,0,0,0,0,0,0,0,0,0,0,0,0,0,0,0,0,0,0,0,0,0,0,0,0,0,0,-0.0957,-0.0958,0,-0.1061,-0.1063,-0.1064,-0.1119,-0.1119,-0.1119,-0.1119,-0.1228,-0.1231,-0.1234,0,0,0,0,0,0,0,0,0,0,0,0,0,-0.0807,-0.0809,-0.0957,-0.0959,-0.096,-0.1061,-0.1063,-0.1064,-0.1119,-0.1119,-0.1119,-0.1119,-0.1227,-0.1231,-0.1234,0,0,0,0,0,0,0,0,0,0,0,0,0,-0.0888,-0.081,-0.0957,-0.0999,-0.1004,-0.1061,-0.1063,-0.1065,-0.1119,-0.1119,-0.1119,-0.1119,-0.1226,-0.123,-0.1234,-0.1258,0,0,-0.1247,-0.1249,0,0,0,0,0,0,0,0,-0.0883,-0.0893,-0.0992,-0.0996,-0.1002,-0.1077,-0.105,-0.1129,-0.1119,-0.1075,-0.1119,-0.1119,-0.1178,-0.1186,-0.1206,-0.1263,-0.1268,-0.1248,-0.125,-0.1252,-0.1253,0,0,0,0,0,0,0,-0.0877,-0.0889,-0.0999,-0.0993,-0.0999,-0.1013,-0.1025,-0.1065,-0.1125,-0.1079,-0.1083,-0.1095,-0.1181,-0.1201,-0.1209,-0.1269,-0.1248,-0.1251,-0.1254,-0.1256,-0.135,-0.135,0,0,0,0,0,0,-0.0865,-0.0884,-0.0995,-0.1002,-0.0942,-0.1016,-0.1029,-0.1053,-0.1124,-0.1135,-0.1095,-0.1097,-0.1194,-0.1204,-0.1213,-0.1244,-0.1252,-0.1256,-0.1259,-0.135,-0.135,-0.135,0,0,0,0,0,0,-0.0861,-0.0874,-0.0991,-0.0944,-0.096,-0.1018,-0.1045,-0.1055,-0.1076,-0.1136,-0.1147,-0.1104,-0.1195,-0.1207,-0.1246,-0.1249,-0.1258,-0.1262,-0.135,-0.135,-0.135,-0.1308,0,0,0,0,0,0,-0.0857,-0.0873,-0.0882,-0.0944,-0.0962,-0.1022,-0.1045,-0.1057,-0.1082,-0.1087,-0.1148,-0.1159,-0.1196,-0.1239,-0.125,-0.1255,-0.1265,-0.1351,-0.135,-0.135,-0.131,-0.1307,-0.1304,0,0,0,0,0,-0.0851,-0.0867,-0.0882,-0.0895,-0.0975,-0.1022,-0.1033,-0.1074,-0.1082,-0.1092,-0.1131,-0.1157,-0.1246,-0.1243,-0.1256,-0.1262,-0.1351,-0.135,-0.135,-0.1311,-0.1307,-0.1304,0,0,0,0,0,0,-0.0805,-0.0876,-0.0894,-0.093,-0.0969,-0.1031,-0.1046,-0.1069,-0.1108,-0.1111,-0.1161,-0.1175,-0.1209,-0.1239,-0.1234,-0.1288,-0.1301,-0.1304,-0.1267,-0.1264,-0.1261,-0.1254,-0.1269,0,0,0,0,0,-0.0799,-0.0831,-0.0891,-0.0917,-0.0936,-0.0987,-0.1009,-0.1037,-0.1081,-0.1098,-0.114,-0.1182,-0.1219,-0.1243,-0.1281,-0.1314,-0.1328,-0.1324,-0.1322,-0.1319,-0.1321,-0.134,-0.1339,-0.135,-0.135,-0.135,0,0,-0.0787,-0.0829,-0.0847,-0.0909,-0.0943,-0.0975,-0.1001,-0.1034,-0.1058,-0.1104,-0.1143,-0.1175,-0.1225,-0.126,-0.1278,-0.1287,-0.1321,-0.1319,-0.1317,-0.132,-0.134,-0.1338,-0.1337,-0.135,-0.135,-0.135,0,0,-0.0782,-0.0817,-0.0842,-0.0875,-0.0926,-0.0959,-0.0965,-0.1023,-0.1046,-0.1086,-0.112,-0.115,-0.1214,-0.1248,-0.1273,-0.1278,-0.1303,-0.1289,-0.1276,-0.1293,-0.1292,-0.1292,-0.1294,-0.1294,-0.1291,-0.129,-0.129,0,-0.0761,-0.081,-0.0852,-0.0883,-0.0909,-0.0949,-0.0975,-0.1006,-0.1066,-0.1084,-0.1092,-0.1172,-0.1208,-0.1252,-0.1253,-0.1273,-0.1281,-0.1283,-0.1289,-0.1289,-0.1289,-0.1291,-0.1292,-0.1288,-0.1289,-0.1289,-0.1289,0,-0.0781,-0.0815,-0.0829,-0.0885,-0.0913,-0.0941,-0.0987,-0.101,-0.1035,-0.1068,-0.1108,-0.1152,-0.12,-0.1212,-0.1238,-0.1259,-0.1263,-0.1279,-0.1294,-0.1285,-0.1288,-0.1289,-0.1286,-0.1286,-0.1287,-0.1287,0,0,-0.0752,-0.0829,-0.0834,-0.0859,-0.0917,-0.0944,-0.0974,-0.1019,-0.1038,-0.1078,-0.1104,-0.1156,-0.1171,-0.12,-0.1229,-0.1245,-0.1245,-0.1259,-0.1261,-0.1255,-0.1271,-0.1259,-0.1259,-0.1261,-0.1262,-0.1262,-0.1267,0,-0.0755,-0.0809,-0.0847,-0.0887,-0.0918,-0.0956,-0.0982,-0.102,-0.1051,-0.1082,-0.1116,-0.1152,-0.1169,-0.1187,-0.1204,-0.1241,-0.1249,-0.1242,-0.1287,-0.1288,-0.1274,-0.1261,-0.1248,-0.1251,-0.1269,-0.1269,-0.1269,0,-0.0766,-0.0804,-0.0846,-0.0899,-0.0914,-0.0936,-0.098,-0.1009,-0.1053,-0.1074,-0.1105,-0.1135,-0.1168,-0.1178,-0.1224,-0.1218,-0.1239,-0.126,-0.1261,-0.1267,-0.1278,-0.1267,-0.1253,-0.1254,-0.1271,-0.1271,-0.1271,0,-0.074,-0.0801,-0.0834,-0.0855,-0.0918,-0.0933,-0.096,-0.1004,-0.1028,-0.1066,-0.1083,-0.1124,-0.1147,-0.1179,-0.1219,-0.1223,-0.1261,-0.1275,-0.128,-0.1279,-0.1287,-0.1286,-0.1276,-0.1299,-0.1299,-0.1299,-0.1299,0,-0.074,-0.0765,-0.0823,-0.0844,-0.0872,-0.0915,-0.0942,-0.0972,-0.101,-0.1038,-0.1073,-0.1098,-0.1149,-0.118,-0.1211,-0.1244,-0.1255,-0.1273,-0.1281,-0.127,-0.1268,-0.1285,-0.1286,-0.1299,-0.1299,-0.1299,-0.1299,0,-0.0717,-0.0757,-0.0795,-0.0851,-0.0865,-0.0884,-0.0932,-0.0953,-0.0985,-0.1018,-0.1029,-0.1079,-0.1117,-0.116,-0.1213,-0.1234,-0.1265,-0.1276,-0.125,-0.1254,-0.1257,-0.1256,-0.1258,-0.1261,-0.1281,-0.1281,-0.128,0,-0.0714,-0.0734,-0.0791,-0.0811,-0.0837,-0.0869,-0.0893,-0.0936,-0.096,-0.101,-0.1025,-0.1065,-0.11,-0.1159,-0.1201,-0.1241,-0.1254,-0.1252,-0.1261,-0.1249,-0.1255,-0.1253,-0.1255,-0.125,-0.125,-0.1249,-0.1249,0,-0.0706,-0.0724,-0.0757,-0.0797,-0.0825,-0.0859,-0.0894,-0.0908,-0.0958,-0.0983,-0.1022,-0.1048,-0.1101,-0.1141,-0.1186,-0.1214,-0.124,-0.1245,-0.1249,-0.1238,-0.1222,-0.1231,-0.1243,-0.1246,-0.1246,-0.1246,-0.1246,-0.1247,-0.0693,-0.0712,-0.0754,-0.079,-0.082,-0.0852,-0.0874,-0.0908,-0.0941,-0.0986,-0.1009,-0.1047,-0.109,-0.1153,-0.118,-0.1211,-0.1219,-0.1224,-0.1226,-0.1226,-0.1223,-0.1216,-0.1219,-0.122,-0.122,-0.122,-0.122,0,-0.0686,-0.0715,-0.0747,-0.0795,-0.0822,-0.0842,-0.0882,-0.0904,-0.0937,-0.0974,-0.1007,-0.105,-0.1089,-0.1132,-0.1173,-0.1189,-0.1202,-0.1199,-0.1199,-0.1205,-0.1213,-0.1206,-0.1188,-0.1188,-0.1188,-0.1188,-0.1188,-0.1188,-0.0686,-0.0718,-0.0741,-0.0789,-0.0818,-0.0855,-0.0876,-0.0905,-0.0934,-0.0981,-0.1013,-0.104,-0.108,-0.1124,-0.116,-0.1172,-0.1185,-0.1179,-0.1194,-0.1201,-0.1204,-0.1207,-0.12,-0.1181,-0.1181,-0.1183,-0.1183,-0.1183]}]]